Back to catalog

STARLINK-6029

AliveCommunicationsVLEO
NORAD 56803·PAYLOAD·🇺🇸 United States

Launched May 31, 2023 from Vandenberg Space Force Base

Loading…

Next Passes (next 24 hours)

TLE

FreshSource: CelesTrak SupGP

Epoch: Sep 14, 2026, 14:56 UTC

1 56803C 23078AN  26257.62270833 -.00031809  00000+0 -26660-2 0  2576
2 56803  70.0009 228.0587 0003516 271.9635   0.1896 14.98342395    13

Track STARLINK-6029 in real time with AllMySat

Download on the App Store